Location: Zagreb
(45.8000°N, 16.0000°E)
Time: 12:42:30
(UTC+01:00)

Vanguard 1 Rocket - Pass Details

Date: 02 October 2020
Orbit: 656 x 4221 km, 34.3° (Epoch: 28 October)

Event Time Altitude Azimuth Distance (km) Brightness Sun altitude
Rises 23:08:21 0° 277° (W) 6,574 12.2 -43.2°
Reaches altitude 10° 23:12:31 10° 270° (W) 5,971 11.8 -43.6°
Enters shadow 23:29:59 40° 213° (SSW) 5,061 10.8 -45.1°
Maximum altitude 23:30:37 40° 210° (SSW) 5,081 - -45.2°
Drops below altitude 10° 23:53:10 10° 151° (SSE) 7,246 - -46.7°
Sets 23:59:03 0° 145° (SE) 8,031 - -47.0°
